Location: Kam�li
(14.6864°N, 3.1482°W)
Time: 22:59:42
(UTC+00:00)

Cosmos 1953 Rocket - Pass Details

Date: 29 October 2020
Orbit: 605 x 634 km, 82.5° (Epoch: 02 December)

Event Time Altitude Azimuth Distance (km) Brightness Sun altitude
Rises 18:18:43 0° 351° (N) 2,902 7.0 -8.8°
Reaches altitude 10° 18:20:57 10° 349° (NNW) 1,999 6.2 -9.3°
Maximum altitude 18:25:20 67° 267° (W) 684 4.0 -10.3°
Drops below altitude 10° 18:29:46 10° 184° (S) 2,007 6.4 -11.4°
Sets 18:32:01 0° 182° (S) 2,915 7.2 -11.9°
